FW6148 Weather Reports


Display with metric or nautical units.
time (UTC)temp
F
wind
direction
speed
MPH
gust
MPH
rain 1hr
in
rain 24hr
in
rain mn
in
humidity
%
barometer
mb
20260901052025 58 0 0.0 2.0 0.00 0.00 0.00 44 1016.6
20260901051550 58 0 0.0 0.0 0.00 0.00 0.00 44 1016.6
20260901051025 58 0 0.0 0.0 0.00 0.00 0.00 44 1016.6
20260901050526 58 0 0.0 0.0 0.00 0.00 0.00 43 1016.7
20260901050056 58 0 0.0 0.0 0.00 0.00 0.00 43 1016.5
20260901045530 58 0 0.0 0.0 0.00 0.00 0.00 43 1016.7
20260901045032 58 0 0.0 0.0 0.00 0.00 0.00 42 1016.7
20260901044559 58 0 0.0 0.0 0.00 0.00 0.00 42 1016.6
20260901044026 58 0 0.0 0.0 0.00 0.00 0.00 42 1016.6
20260901043525 58 0 0.0 0.0 0.00 0.00 0.00 41 1016.7
20260901043057 58 0 0.0 0.0 0.00 0.00 0.00 42 1016.7
20260901042526 58 0 0.0 0.0 0.00 0.00 0.00 42 1016.6
20260901042024 58 0 0.0 2.0 0.00 0.00 0.00 42 1016.6
20260901041550 58 0 0.0 2.0 0.00 0.00 0.00 42 1016.6
20260901041025 58 360 0.0 2.0 0.00 0.00 0.00 42 1016.7
20260901040527 59 360 0.0 2.0 0.00 0.00 0.00 42 1016.7
20260901040049 59 360 0.0 3.0 0.00 0.00 0.00 41 1016.7
20260901035526 60 0 0.0 3.0 0.00 0.00 0.00 40 1016.7
20260901035025 61 360 1.0 3.0 0.00 0.00 0.00 38 1016.7
20260901034550 61 360 1.0 3.0 0.00 0.00 0.00 38 1016.6
20260901034030 61 360 2.0 3.0 0.00 0.00 0.00 38 1016.4
20260901033527 61 360 2.0 3.0 0.00 0.00 0.00 38 1016.4
20260901033049 61 360 2.0 3.0 0.00 0.00 0.00 38 1016.4
20260901032525 61 360 1.0 4.0 0.00 0.00 0.00 38 1016.4
20260901032025 61 360 1.0 4.0 0.00 0.00 0.00 38 1016.3
20260901031555 62 360 2.0 4.0 0.00 0.00 0.00 38 1016.4
20260901031026 61 360 2.0 4.0 0.00 0.00 0.00 38 1016.5
20260901030525 61 243 1.0 4.0 0.00 0.00 0.00 38 1016.4
20260901030043 61 244 2.0 4.0 0.00 0.00 0.00 39 1016.4
20260901025529 61 254 2.0 4.0 0.00 0.00 0.00 39 1016.4
20260901025024 62 254 2.0 4.0 0.00 0.00 0.00 39 1016.3
20260901024554 62 254 1.0 3.0 0.00 0.00 0.00 39 1016.2
20260901024027 62 0 0.0 4.0 0.00 0.00 0.00 39 1016.1
20260901023526 63 0 1.0 4.0 0.00 0.00 0.00 39 1016.1
20260901023051 63 254 2.0 4.0 0.00 0.00 0.00 38 1016.0
20260901022526 63 247 1.0 3.0 0.00 0.00 0.00 39 1016.0
20260901022029 64 360 1.0 2.0 0.00 0.00 0.00 38 1015.8
20260901021550 65 0 0.0 2.0 0.00 0.00 0.00 37 1015.8
20260901021027 66 0 0.0 2.0 0.00 0.00 0.00 36 1015.9
20260901020526 67 360 1.0 4.0 0.00 0.00 0.00 35 1015.8
20260901020053 67 0 0.0 4.0 0.00 0.00 0.00 35 1015.9
20260901015527 68 360 2.0 4.0 0.00 0.00 0.00 34 1015.8
20260901015027 69 360 1.0 3.0 0.00 0.00 0.00 34 1015.9
20260901014543 70 0 0.0 3.0 0.00 0.00 0.00 33 1015.8
20260901014028 71 360 0.0 2.0 0.00 0.00 0.00 30 1015.6
20260901013526 73 0 0.0 2.0 0.00 0.00 0.00 30 1015.6
20260901013050 74 360 0.0 2.0 0.00 0.00 0.00 30 1015.5
20260901012524 75 0 0.0 1.0 0.00 0.00 0.00 30 1015.4
20260901012024 77 0 0.0 4.0 0.00 0.00 0.00 29 1015.5
20260901011550 77 0 1.0 4.0 0.00 0.00 0.00 25 1015.4
20260901011026 77 360 1.0 3.0 0.00 0.00 0.00 24 1015.3
20260901010528 78 0 0.0 3.0 0.00 0.00 0.00 24 1015.5
20260901010049 78 237 1.0 4.0 0.00 0.00 0.00 25 1015.4
20260901005528 79 236 0.0 5.0 0.00 0.00 0.00 24 1015.3
20260901005026 79 235 2.0 5.0 0.00 0.00 0.00 23 1015.4
20260901004605 80 215 2.0 5.0 0.00 0.00 0.00 22 1015.3
20260901004025 80 216 2.0 6.0 0.00 0.00 0.00 22 1015.3
20260901003525 80 0 2.0 6.0 0.00 0.00 0.00 23 1015.4
20260901003052 80 0 0.0 4.0 0.00 0.00 0.00 23 1015.3
20260901002525 80 197 1.0 4.0 0.00 0.00 0.00 22 1015.3
20260901002026 80 0 1.0 6.0 0.00 0.00 0.00 22 1015.3
20260901001549 80 0 0.0 7.0 0.00 0.00 0.00 24 1015.3
20260901001026 80 215 1.0 7.0 0.00 0.00 0.00 22 1015.3
20260901000525 81 241 1.0 4.0 0.00 0.00 0.00 24 1015.3
20260901000103 81 0 0.0 5.0 0.00 0.00 0.00 24 1015.4
20260831235525 80 234 1.0 6.0 0.00 0.00 0.00 22 1015.3
20260831235026 80 242 2.0 8.0 0.00 0.00 0.00 23 1015.3
20260831234542 80 256 1.0 9.0 0.00 0.00 0.00 24 1015.3
20260831234026 80 277 3.0 9.0 0.00 0.00 0.00 23 1015.3
20260831233527 81 258 4.0 8.0 0.00 0.00 0.00 22 1015.3
20260831233051 81 0 1.0 8.0 0.00 0.00 0.00 23 1015.5
20260831232526 81 141 5.0 8.0 0.00 0.00 0.00 23 1015.4
20260831232029 81 276 2.0 8.0 0.00 0.00 0.00 23 1015.5
20260831231553 81 275 3.0 9.0 0.00 0.00 0.00 23 1015.5
20260831231027 81 215 5.0 9.0 0.00 0.00 0.00 23 1015.6
20260831230527 81 282 1.0 7.0 0.00 0.00 0.00 23 1015.5
20260831230045 81 273 3.0 7.0 0.00 0.00 0.00 23 1015.5
20260831225524 81 119 3.0 7.0 0.00 0.00 0.00 23 1015.5
20260831225026 81 45 1.0 4.0 0.00 0.00 0.00 24 1015.5
20260831224553 81 0 2.0 10.0 0.00 0.00 0.00 24 1015.6
20260831224027 81 0 2.0 11.0 0.00 0.00 0.00 24 1015.4
20260831223525 81 229 5.0 11.0 0.00 0.00 0.00 24 1015.5
20260831223057 81 325 1.0 5.0 0.00 0.00 0.00 25 1015.5
20260831222530 80 360 2.0 7.0 0.00 0.00 0.00 25 1015.5
20260831222026 80 239 4.0 10.0 0.00 0.00 0.00 24 1015.6
20260831221547 81 209 5.0 10.0 0.00 0.00 0.00 24 1015.6
20260831221028 81 219 4.0 10.0 0.00 0.00 0.00 24 1015.7
20260831220526 80 239 3.0 10.0 0.00 0.00 0.00 25 1015.7
20260831220045 79 136 4.0 8.0 0.00 0.00 0.00 25 1015.6
20260831215526 79 121 3.0 7.0 0.00 0.00 0.00 25 1015.7
20260831215026 80 344 3.0 7.0 0.00 0.00 0.00 28 1015.8
20260831214541 80 251 1.0 5.0 0.00 0.00 0.00 25 1015.8
20260831214025 79 165 1.0 6.0 0.00 0.00 0.00 25 1015.9
20260831213529 79 213 2.0 7.0 0.00 0.00 0.00 25 1016.0
20260831213056 79 23 1.0 7.0 0.00 0.00 0.00 25 1016.0
20260831212524 79 259 2.0 7.0 0.00 0.00 0.00 26 1016.1
20260831212028 78 114 2.0 6.0 0.00 0.00 0.00 25 1016.1
20260831211544 78 26 3.0 6.0 0.00 0.00 0.00 25 1016.1
20260831211025 79 346 2.0 6.0 0.00 0.00 0.00 26 1016.0
20260831210526 79 192 1.0 6.0 0.00 0.00 0.00 25 1016.3
20260831210043 78 151 3.0 6.0 0.00 0.00 0.00 26 1016.4
20260831205524 78 219 1.0 6.0 0.00 0.00 0.00 26 1016.5
20260831205026 78 236 3.0 7.0 0.00 0.00 0.00 26 1016.7
20260831204550 77 0 4.0 8.0 0.00 0.00 0.00 26 1016.7
20260831204029 77 228 4.0 8.0 0.00 0.00 0.00 26 1016.8
20260831203528 77 281 4.0 9.0 0.00 0.00 0.00 27 1016.8
20260831203045 78 237 4.0 9.0 0.00 0.00 0.00 26 1016.7
20260831202527 78 261 3.0 9.0 0.00 0.00 0.00 27 1016.9
20260831202025 78 101 1.0 10.0 0.00 0.00 0.00 27 1016.9
20260831201550 78 139 4.0 10.0 0.00 0.00 0.00 27 1017.0
20260831201027 77 323 1.0 4.0 0.00 0.00 0.00 28 1017.0
20260831200526 76 347 1.0 4.0 0.00 0.00 0.00 28 1017.0
20260831200048 76 20 1.0 6.0 0.00 0.00 0.00 29 1017.0
20260831195525 76 104 2.0 9.0 0.00 0.00 0.00 28 1017.0
20260831195026 76 133 2.0 9.0 0.00 0.00 0.00 29 1017.2
20260831194627 75 71 4.0 9.0 0.00 0.00 0.00 29 1017.2
20260831194024 75 0 1.0 10.0 0.00 0.00 0.00 31 1017.2
20260831193528 74 74 3.0 10.0 0.00 0.00 0.00 30 1017.2
20260831193050 75 360 3.0 8.0 0.00 0.00 0.00 29 1017.2
20260831192526 75 103 3.0 8.0 0.00 0.00 0.00 30 1017.2
20260831192026 74 360 2.0 5.0 0.00 0.00 0.00 32 1017.1
20260831191548 74 317 2.0 8.0 0.00 0.00 0.00 31 1017.2
20260831191025 74 360 2.0 8.0 0.00 0.00 0.00 31 1017.3
20260831190527 74 360 5.0 9.0 0.00 0.00 0.00 31 1017.5
20260831190108 74 360 2.0 9.0 0.00 0.00 0.00 30 1017.6
20260831185527 73 360 1.0 14.0 0.00 0.00 0.00 33 1017.5
20260831185026 72 360 4.0 14.0 0.00 0.00 0.00 32 1017.6
20260831184542 72 360 3.0 9.0 0.00 0.00 0.00 33 1017.6
20260831184024 71 360 4.0 9.0 0.00 0.00 0.00 33 1017.6
20260831183529 71 360 3.0 8.0 0.00 0.00 0.00 32 1017.5
20260831183055 72 360 3.0 8.0 0.00 0.00 0.00 33 1017.6
20260831182528 72 360 1.0 5.0 0.00 0.00 0.00 33 1017.6
20260831182027 71 360 2.0 10.0 0.00 0.00 0.00 35 1017.8
20260831181551 71 360 4.0 10.0 0.00 0.00 0.00 33 1017.9
20260831181026 71 360 3.0 8.0 0.00 0.00 0.00 33 1018.0
20260831180528 71 360 3.0 10.0 0.00 0.00 0.00 33 1018.0
20260831180048 71 360 4.0 10.0 0.00 0.00 0.00 33 1018.1
20260831175524 70 360 0.0 11.0 0.00 0.00 0.00 33 1018.1
20260831175024 70 360 4.0 11.0 0.00 0.00 0.00 34 1018.1
20260831174550 70 360 2.0 9.0 0.00 0.00 0.00 35 1018.1
20260831174120 70 360 2.0 13.0 0.00 0.00 0.00 34 1018.1
20260831173526 70 360 4.0 13.0 0.00 0.00 0.00 35 1018.0
20260831173049 69 360 2.0 9.0 0.00 0.00 0.00 36 1018.1
20260831172525 68 360 4.0 11.0 0.00 0.00 0.00 35 1018.0
20260831172026 69 360 4.0 12.0 0.00 0.00 0.00 36 1018.1
20260831171548 68 360 3.0 12.0 0.00 0.00 0.00 37 1018.1
20260831171030 68 360 4.0 11.0 0.00 0.00 0.00 35 1018.1
20260831170525 68 360 3.0 11.0 0.00 0.00 0.00 37 1018.3
20260831170046 68 360 4.0 10.0 0.00 0.00 0.00 37 1018.2
20260831165524 68 360 3.0 11.0 0.00 0.00 0.00 36 1018.2
20260831165027 67 360 3.0 11.0 0.00 0.00 0.00 37 1018.2
20260831164559 67 360 5.0 11.0 0.00 0.00 0.00 38 1018.2
20260831164027 67 360 4.0 10.0 0.00 0.00 0.00 37 1018.1
20260831163527 67 360 4.0 9.0 0.00 0.00 0.00 39 1018.1
20260831163051 66 360 5.0 9.0 0.00 0.00 0.00 38 1018.0
20260831162531 66 360 3.0 9.0 0.00 0.00 0.00 38 1018.1
20260831162028 66 360 4.0 9.0 0.00 0.00 0.00 38 1018.0
20260831161550 66 360 4.0 8.0 0.00 0.00 0.00 38 1018.2
20260831161030 66 360 4.0 8.0 0.00 0.00 0.00 39 1018.1
20260831160525 65 360 4.0 8.0 0.00 0.00 0.00 39 1017.9
20260831160104 65 360 4.0 10.0 0.00 0.00 0.00 40 1018.0
20260831155530 65 360 4.0 10.0 0.00 0.00 0.00 39 1017.9
20260831155028 65 360 5.0 10.0 0.00 0.00 0.00 39 1018.0
20260831154651 64 360 2.0 9.0 0.00 0.00 0.00 39 1017.9
20260831154026 64 360 4.0 9.0 0.00 0.00 0.00 39 1018.1
20260831153528 64 360 3.0 10.0 0.00 0.00 0.00 39 1018.1
20260831153051 64 360 2.0 11.0 0.00 0.00 0.00 39 1018.0
20260831152526 64 360 6.0 11.0 0.00 0.00 0.00 40 1018.0
20260831152029 64 360 3.0 9.0 0.00 0.00 0.00 40 1017.9
20260831151549 64 360 3.0 9.0 0.00 0.00 0.00 41 1017.9
20260831151025 63 360 4.0 9.0 0.00 0.00 0.00 40 1017.9
20260831150525 63 360 4.0 9.0 0.00 0.00 0.00 41 1017.9
20260831150056 63 360 4.0 10.0 0.00 0.00 0.00 41 1017.7
20260831145525 63 360 4.0 11.0 0.00 0.00 0.00 42 1017.7
20260831145024 62 360 4.0 12.0 0.00 0.00 0.00 43 1017.4
20260831144542 62 360 6.0 12.0 0.00 0.00 0.00 45 1017.3
20260831144024 61 360 5.0 12.0 0.00 0.00 0.00 46 1017.3
20260831143528 60 360 6.0 11.0 0.00 0.00 0.00 47 1017.3
20260831143107 59 360 4.0 9.0 0.00 0.00 0.00 54 1017.3
20260831142529 58 360 3.0 9.0 0.00 0.00 0.00 58 1017.4
20260831142025 57 360 5.0 9.0 0.00 0.00 0.00 60 1017.4
20260831141605 56 360 4.0 8.0 0.00 0.00 0.00 63 1017.3
20260831141025 55 360 4.0 8.0 0.00 0.00 0.00 66 1017.4
20260831140527 53 360 3.0 6.0 0.00 0.00 0.00 69 1017.3
20260831140046 51 360 2.0 5.0 0.00 0.00 0.00 74 1017.3
20260831135528 50 360 3.0 4.0 0.00 0.00 0.00 81 1017.3
20260831135028 49 360 2.0 5.0 0.00 0.00 0.00 83 1017.1
20260831134601 47 360 2.0 5.0 0.00 0.00 0.00 85 1017.0
20260831134025 44 360 2.0 4.0 0.00 0.00 0.00 90 1017.1
20260831133528 42 162 0.0 0.0 0.00 0.00 0.00 89 1017.1
20260831133050 41 0 0.0 0.0 0.00 0.00 0.00 89 1017.0
20260831132526 41 0 0.0 0.0 0.00 0.00 0.00 89 1017.0
20260831132026 41 0 0.0 0.0 0.00 0.00 0.00 88 1017.0
20260831131549 41 0 0.0 0.0 0.00 0.00 0.00 87 1016.8
20260831131028 41 0 0.0 0.0 0.00 0.00 0.00 89 1016.7
20260831130528 40 0 0.0 0.0 0.00 0.00 0.00 89 1016.7
20260831130056 40 0 0.0 0.0 0.00 0.00 0.00 87 1016.6
20260831125530 40 0 0.0 0.0 0.00 0.00 0.00 88 1016.5
20260831125029 40 0 0.0 0.0 0.00 0.00 0.00 87 1016.4
20260831124559 40 0 0.0 0.0 0.00 0.00 0.00 86 1016.4
20260831124033 40 0 0.0 0.0 0.00 0.00 0.00 87 1016.3
20260831123526 41 0 0.0 0.0 0.00 0.00 0.00 89 1016.2
20260831123051 40 0 0.0 0.0 0.00 0.00 0.00 88 1016.2
20260831122530 40 0 0.0 0.0 0.00 0.00 0.00 86 1016.1
20260831122027 40 0 0.0 0.0 0.00 0.00 0.00 87 1016.0
20260831121547 40 0 0.0 0.0 0.00 0.00 0.00 85 1016.2
20260831121027 41 0 0.0 6.0 0.00 0.00 0.00 86 1016.1
20260831120527 41 0 0.0 6.0 0.00 0.00 0.00 87 1016.3
20260831120051 41 164 3.0 6.0 0.00 0.00 0.00 84 1016.2
20260831115530 41 162 0.0 3.0 0.00 0.00 0.00 84 1016.1
20260831115032 42 0 0.0 4.0 0.00 0.00 0.00 86 1016.2
20260831114549 41 162 1.0 4.0 0.00 0.00 0.00 87 1016.2
20260831114027 42 0 0.0 0.0 0.00 0.00 0.00 84 1016.0
20260831113529 42 0 0.0 0.0 0.00 0.00 0.00 83 1016.0
20260831113054 43 0 0.0 4.0 0.00 0.00 0.00 83 1015.9
20260831112526 43 0 0.0 4.0 0.00 0.00 0.00 84 1015.6
20260831112025 43 0 0.0 2.0 0.00 0.00 0.00 81 1015.4
20260831111543 44 0 0.0 0.0 0.00 0.00 0.00 82 1015.4
20260831111027 44 0 0.0 0.0 0.00 0.00 0.00 82 1015.4
20260831110529 45 0 0.0 0.0 0.00 0.00 0.00 80 1015.4
20260831110056 45 0 0.0 0.0 0.00 0.00 0.00 82 1015.3
20260831105529 46 0 0.0 3.0 0.00 0.00 0.00 79 1015.2
20260831105027 47 0 0.0 3.0 0.00 0.00 0.00 80 1015.1
20260831104553 48 0 0.0 2.0 0.00 0.00 0.00 79 1015.1
20260831104028 48 0 0.0 3.0 0.00 0.00 0.00 79 1015.0
20260831103528 49 360 0.0 3.0 0.00 0.00 0.00 78 1015.0
20260831103049 49 360 0.0 4.0 0.00 0.00 0.00 77 1014.9
20260831102529 50 360 1.0 4.0 0.00 0.00 0.00 77 1014.9
20260831102033 51 360 2.0 4.0 0.00 0.00 0.00 75 1014.9
20260831101614 52 360 0.0 1.0 0.00 0.00 0.00 74 1014.9
20260831101030 52 0 0.0 2.0 0.00 0.00 0.00 74 1014.9
20260831100528 53 0 0.0 5.0 0.00 0.00 0.00 74 1014.7
20260831100058 53 360 0.0 5.0 0.00 0.00 0.00 73 1014.7
20260831095532 54 360 3.0 5.0 0.00 0.00 0.00 73 1014.5
20260831095031 54 360 1.0 4.0 0.00 0.00 0.00 73 1014.4
20260831094548 55 0 1.0 9.0 0.00 0.00 0.00 71 1014.4
20260831094027 56 360 2.0 9.0 0.00 0.00 0.00 70 1014.3
20260831093529 56 360 5.0 10.0 0.00 0.00 0.00 71 1014.2
20260831093050 56 360 5.0 10.0 0.00 0.00 0.00 71 1014.1
20260831092526 56 360 6.0 10.0 0.00 0.00 0.00 71 1014.2
20260831092026 56 360 5.0 11.0 0.00 0.00 0.00 71 1014.1
20260831091545 56 360 6.0 12.0 0.00 0.00 0.00 71 1014.1
20260831091029 56 360 6.0 12.0 0.00 0.00 0.00 72 1014.1
20260831090525 56 360 8.0 13.0 0.00 0.00 0.00 72 1014.1
20260831090105 56 360 5.0 13.0 0.00 0.00 0.00 73 1014.1
20260831085528 56 360 8.0 12.0 0.00 0.00 0.00 73 1013.9
20260831085028 55 360 7.0 13.0 0.00 0.00 0.00 74 1013.9
20260831084553 55 360 7.0 13.0 0.00 0.00 0.00 74 1013.9
20260831084025 55 360 8.0 12.0 0.00 0.00 0.00 75 1013.9
20260831083525 55 360 7.0 12.0 0.00 0.00 0.00 75 1013.9
20260831083048 55 360 6.0 11.0 0.00 0.00 0.00 75 1013.9
20260831082526 55 360 5.0 10.0 0.00 0.00 0.00 76 1014.0
20260831082029 54 360 5.0 9.0 0.00 0.00 0.00 77 1014.0
20260831081551 54 360 3.0 6.0 0.00 0.00 0.00 79 1013.9
20260831081028 54 360 0.0 8.0 0.00 0.00 0.00 79 1013.9
20260831080525 53 360 2.0 8.0 0.00 0.00 0.00 79 1013.9
20260831080054 53 360 3.0 8.0 0.00 0.00 0.00 79 1014.0
20260831075527 52 360 3.0 5.0 0.00 0.00 0.00 79 1014.1
20260831075027 52 360 1.0 5.0 0.00 0.00 0.00 79 1014.1
20260831074552 52 360 1.0 5.0 0.00 0.00 0.00 79 1014.2
20260831074029 51 360 2.0 4.0 0.00 0.00 0.00 80 1014.3
20260831073531 51 360 2.0 4.0 0.00 0.00 0.00 80 1014.3
20260831073045 51 360 2.0 4.0 0.00 0.00 0.00 80 1014.3
20260831072526 51 0 0.0 4.0 0.00 0.00 0.00 80 1014.3
20260831072028 51 360 1.0 5.0 0.00 0.00 0.00 80 1014.3
20260831071554 51 360 2.0 5.0 0.00 0.00 0.00 81 1014.3
20260831071030 52 360 2.0 5.0 0.00 0.00 0.00 80 1014.4
20260831070529 52 360 2.0 5.0 0.00 0.00 0.00 80 1014.3
20260831070052 52 360 3.0 5.0 0.00 0.00 0.00 80 1014.4
20260831065527 51 360 3.0 4.0 0.00 0.00 0.00 80 1014.4
20260831065027 51 360 3.0 4.0 0.00 0.00 0.00 81 1014.4
20260831064547 51 360 0.0 4.0 0.00 0.00 0.00 80 1014.6
20260831064028 51 360 1.0 4.0 0.00 0.00 0.00 82 1014.5
20260831063528 50 0 0.0 0.0 0.00 0.00 0.00 80 1014.6
20260831063052 50 0 0.0 0.0 0.00 0.00 0.00 80 1014.6
20260831062525 50 0 0.0 0.0 0.00 0.00 0.00 82 1014.5
20260831062027 49 0 0.0 0.0 0.00 0.00 0.00 83 1014.5
20260831061558 49 0 0.0 0.0 0.00 0.00 0.00 80 1014.5
20260831061028 49 0 0.0 3.0 0.00 0.00 0.00 81 1014.4
20260831060527 49 0 0.0 3.0 0.00 0.00 0.00 81 1014.4
20260831055525 49 0 0.0 3.0 0.00 0.00 0.00 81 1014.3
20260831055028 49 360 2.0 3.0 0.00 0.00 0.00 84 1014.4
20260831054544 48 0 0.0 2.0 0.00 0.00 0.00 81 1014.4
20260831054026 49 0 0.0 4.0 0.00 0.00 0.00 80 1014.6
20260831053528 49 0 0.0 4.0 0.00 0.00 0.00 81 1014.7
20260831053052 49 360 2.0 4.0 0.00 0.00 0.00 83 1014.7
20260831052531 48 360 0.0 3.0 0.00 0.00 0.00 82 1014.7